{"data":{"norad_id":57049,"intl_designator":"2023-088B","name":"STARLINK-5850","alt_names":[],"object_type":"PAYLOAD","status":"ACTIVE","operator":null,"country":"US","launch_date":"2023-06-22","launch_site_code":"AFWTR","launch_vehicle":null,"mission":null,"orbit_class":"UNKNOWN","rcs_meters":null,"size_class":null,"mass_kg":null,"dimensions":null,"purposes":["comms"],"wikipedia_slug":null,"has_3d_model":false,"image_url":null,"decayed_at":null,"tle_current":{"epoch":"2026-09-20T21:36:00.825120Z","epoch_age_seconds":83087,"freshness":"FRESH","line1":"1 57049U 23088B   26263.90000955 -.00000201  00000+0  22337-5 0  9998","line2":"2 57049  43.0055  88.5360 0001863 267.5989  92.4650 15.27573952180379","mean_motion":15.27573952,"eccentricity":0.0001863,"inclination_deg":43.0055,"raan_deg":88.536,"arg_perigee_deg":267.5989,"mean_anomaly_deg":92.465,"bstar":2.2337e-6,"rev_number":18037,"period_min":94.267121936366,"perigee_km":481.78896364359,"apogee_km":484.34544833074,"semimajor_km":6861.2042059872,"source":"CELESTRAK","updated_at":"2026-09-21T09:00:33.547816Z"}}}